Location: Brno
(49.2000°N, 16.6330°E)
Time: 06:12:49
(UTC+02:00)

Cosmos 332 Rocket - Visible Passes

Search period start: 28 July 2014 00:00
Search period end: 07 August 2014 00:00
Orbit: 685 x 706 km, 74.0° (Epoch: 26 July)

Date Brightness Start Highest point End Pass type
(mag) Time Alt. Az. Time Alt. Az. Time Alt. Az.
28 Jul 5.8 00:16:26 14° E 00:16:45 14° E 00:19:11 10° ENE visible
28 Jul 3.7 01:55:11 48° SSW 01:56:33 83° WNW 02:01:25 10° NNE visible
28 Jul 6.0 03:34:56 10° W 03:37:51 16° NW 03:40:46 10° N visible
29 Jul 4.5 00:57:33 38° ESE 00:58:05 39° ESE 01:02:34 10° NE visible
29 Jul 5.1 02:36:17 21° WSW 02:38:39 32° NW 02:43:00 10° N visible
29 Jul 5.7 23:59:54 16° E 23:59:55 16° E 00:02:47 10° ENE visible
30 Jul 3.8 01:38:38 51° SW 01:39:49 74° WNW 01:44:40 10° NNE visible
30 Jul 6.1 03:18:36 10° WNW 03:21:13 14° NW 03:23:50 10° N visible
31 Jul 4.2 00:40:57 43° ESE 00:41:18 44° ESE 00:45:53 10° NE visible
31 Jul 5.3 02:19:42 20° W 02:21:58 29° NW 02:26:11 10° N visible
31 Jul 5.5 23:43:15 18° E 23:43:15 18° E 23:46:18 10° NE visible
01 Aug 4.0 01:21:59 50° WSW 01:23:05 66° WNW 01:27:55 10° NNE visible
01 Aug 6.2 03:02:20 10° WNW 03:04:35 13° NW 03:06:50 10° NNW visible
02 Aug 4.0 00:24:16 49° ESE 00:24:32 50° ESE 00:29:12 10° NNE visible
02 Aug 5.4 02:02:59 18° W 02:05:18 26° NW 02:09:22 10° N visible
02 Aug 5.4 23:26:30 20° E 23:26:30 20° E 23:29:46 10° NE visible
03 Aug 4.1 01:05:14 46° WSW 01:06:22 59° WNW 01:11:09 10° NNE visible
03 Aug 6.3 02:46:09 10° WNW 02:47:58 12° NW 02:49:47 10° NNW visible
04 Aug 3.9 00:07:27 55° SE 00:07:46 56° ESE 00:12:30 10° NNE visible
04 Aug 5.6 01:46:11 16° W 01:48:37 24° NW 01:52:31 10° N visible
04 Aug 5.2 23:09:38 23° E 23:09:38 23° E 23:13:12 10° NE visible
05 Aug 4.4 00:48:21 40° WSW 00:49:38 52° WNW 00:54:22 10° NNE visible
05 Aug 6.5 02:30:07 10° NW 02:31:20 11° NW 02:32:34 10° NNW visible
05 Aug 3.7 23:50:30 60° SE 23:51:00 64° ESE 23:55:47 10° NNE visible
06 Aug 5.8 01:29:13 14° W 01:31:57 22° NW 01:35:40 10° N visible
06 Aug 4.9 22:52:36 25° ESE 22:52:41 25° E 22:56:36 10° NE visible
